Year,Month,Day,Hour,Minute,Value (Times are PST for temperature in C)
2008,11,17,10,25,9.10
2008,11,17,10,26,9.10
2008,11,17,10,27,9.10
2008,11,17,10,28,9.10
2008,11,17,10,29,9.10
2008,11,17,10,30,9.10
2008,11,17,10,31,9.10
2008,11,17,10,32,9.10
2008,11,17,10,33,9.20
2008,11,17,10,34,9.20
2008,11,17,10,35,9.20
2008,11,17,10,36,9.30
2008,11,17,10,37,9.30
2008,11,17,10,38,9.30
2008,11,17,10,39,9.40
2008,11,17,10,40,9.40
2008,11,17,10,41,9.40
2008,11,17,10,42,9.40
2008,11,17,10,43,9.50
2008,11,17,10,44,9.50
2008,11,17,10,45,9.50
2008,11,17,10,46,9.50
2008,11,17,10,47,9.50
2008,11,17,10,48,9.60
2008,11,17,10,49,9.60
2008,11,17,10,50,9.60
2008,11,17,10,51,9.60
2008,11,17,10,52,9.60
2008,11,17,10,53,9.60
2008,11,17,10,54,9.70
2008,11,17,10,55,9.70
2008,11,17,10,56,9.80
2008,11,17,10,57,9.80
2008,11,17,10,58,9.80
2008,11,17,10,59,9.80
2008,11,17,11,00,9.80
2008,11,17,11,01,9.90
2008,11,17,11,02,10.00
2008,11,17,11,03,10.00
2008,11,17,11,04,10.10
2008,11,17,11,05,10.20
2008,11,17,11,06,10.20
2008,11,17,11,07,10.20
2008,11,17,11,08,10.20
2008,11,17,11,09,10.20
2008,11,17,11,10,10.20
2008,11,17,11,11,10.20
2008,11,17,11,12,10.20
2008,11,17,11,13,10.20
2008,11,17,11,14,10.20
2008,11,17,11,15,10.20
2008,11,17,11,16,10.20
2008,11,17,11,17,10.20
2008,11,17,11,18,10.20
2008,11,17,11,19,10.20
2008,11,17,11,20,10.20
2008,11,17,11,21,10.20
2008,11,17,11,22,10.20
2008,11,17,11,23,10.20
2008,11,17,11,24,10.20
2008,11,17,11,25,10.20
2008,11,17,11,26,10.20
2008,11,17,11,27,10.20
2008,11,17,11,28,10.20
2008,11,17,11,29,10.20
2008,11,17,11,30,10.20
2008,11,17,11,31,10.30
2008,11,17,11,32,10.30
2008,11,17,11,33,10.30
2008,11,17,11,34,10.30
2008,11,17,11,35,10.30
2008,11,17,11,36,10.30
2008,11,17,11,37,10.20
2008,11,17,11,38,10.20
2008,11,17,11,39,10.20
2008,11,17,11,40,10.20
2008,11,17,11,41,10.20
2008,11,17,11,42,10.20
2008,11,17,11,43,10.20
2008,11,17,11,44,10.30
2008,11,17,11,45,10.30
2008,11,17,11,46,10.30
2008,11,17,11,47,10.40
2008,11,17,11,48,10.50
2008,11,17,11,49,10.50
2008,11,17,11,50,10.60
2008,11,17,11,51,10.70
2008,11,17,11,52,10.70
2008,11,17,11,53,10.70
2008,11,17,11,54,10.60
2008,11,17,11,55,10.50
2008,11,17,11,56,10.50
2008,11,17,11,57,10.50
2008,11,17,11,58,10.50
2008,11,17,11,59,10.60
2008,11,17,12,00,10.60
2008,11,17,12,01,10.70
2008,11,17,12,02,10.70
2008,11,17,12,03,10.70
2008,11,17,12,04,10.80
2008,11,17,12,05,10.80
2008,11,17,12,06,10.90
2008,11,17,12,07,10.90
2008,11,17,12,08,11.00
2008,11,17,12,09,11.00
2008,11,17,12,11,11.10
2008,11,17,12,12,11.10
2008,11,17,12,13,11.10
2008,11,17,12,14,11.10
2008,11,17,12,15,11.10
2008,11,17,12,16,11.20
2008,11,17,12,17,11.20
2008,11,17,12,18,11.20
2008,11,17,12,19,11.30
2008,11,17,12,20,11.30
2008,11,17,12,21,11.30
2008,11,17,12,22,11.30
2008,11,17,12,23,11.40
2008,11,17,12,24,11.30
2008,11,17,12,25,11.30
2008,11,17,12,26,11.40
2008,11,17,12,27,11.40
2008,11,17,12,28,11.40
2008,11,17,12,29,11.40
2008,11,17,12,30,11.40
2008,11,17,12,31,11.40
2008,11,17,12,32,11.40
2008,11,17,12,33,11.40
2008,11,17,12,34,11.40
2008,11,17,12,35,11.40
2008,11,17,12,36,11.30
2008,11,17,12,37,11.30
2008,11,17,12,38,11.30
2008,11,17,12,39,11.30
2008,11,17,12,40,11.30
2008,11,17,12,41,11.20
2008,11,17,12,42,11.20
2008,11,17,12,43,11.30
2008,11,17,12,44,11.20
2008,11,17,12,45,11.30
2008,11,17,12,46,11.30
2008,11,17,12,47,11.30
2008,11,17,12,48,11.40
2008,11,17,12,49,11.40
2008,11,17,12,50,11.40
2008,11,17,12,51,11.30
2008,11,17,12,52,11.40
2008,11,17,12,53,11.40
2008,11,17,12,54,11.40
2008,11,17,12,55,11.30
2008,11,17,12,56,11.40
2008,11,17,12,57,11.40
2008,11,17,12,58,11.40
2008,11,17,12,59,11.50
2008,11,17,13,00,11.50
2008,11,17,13,01,11.60
2008,11,17,13,02,11.60
2008,11,17,13,03,11.60
2008,11,17,13,04,11.70
2008,11,17,13,05,11.70
2008,11,17,13,06,11.70
2008,11,17,13,07,11.70
2008,11,17,13,08,11.60
2008,11,17,13,09,11.60
2008,11,17,13,10,11.60
2008,11,17,13,11,11.60
2008,11,17,13,12,11.60
2008,11,17,13,13,11.60
2008,11,17,13,14,11.60
2008,11,17,13,15,11.60
2008,11,17,13,16,11.60
2008,11,17,13,17,11.60
2008,11,17,13,18,11.50
2008,11,17,13,19,11.50
2008,11,17,13,20,11.40
2008,11,17,13,21,11.40
2008,11,17,13,22,11.30
2008,11,17,13,23,11.30
2008,11,17,13,24,11.20
2008,11,17,13,25,11.10
2008,11,17,13,26,11.10
2008,11,17,13,27,11.10
2008,11,17,13,28,11.20
2008,11,17,13,29,11.20
2008,11,17,13,30,11.20
2008,11,17,13,31,11.20
2008,11,17,13,32,11.20
2008,11,17,13,33,11.20
2008,11,17,13,34,11.10
2008,11,17,13,35,11.10
2008,11,17,13,36,11.10
2008,11,17,13,37,11.10
2008,11,17,13,38,11.10
2008,11,17,13,39,11.10
2008,11,17,13,40,11.10
2008,11,17,13,41,11.10
2008,11,17,13,42,11.10
2008,11,17,13,43,11.10
2008,11,17,13,44,11.20
2008,11,17,13,45,11.20
2008,11,17,13,46,11.20
2008,11,17,13,47,11.30
2008,11,17,13,48,11.30
2008,11,17,13,49,11.30
2008,11,17,13,50,11.40
2008,11,17,13,51,11.40
2008,11,17,13,52,11.50
2008,11,17,13,53,11.50
2008,11,17,13,54,11.50
2008,11,17,13,55,11.60
2008,11,17,13,56,11.60
2008,11,17,13,57,11.60
2008,11,17,13,58,11.50
2008,11,17,13,59,11.50
2008,11,17,14,00,11.40
2008,11,17,14,01,11.40
2008,11,17,14,02,11.40
2008,11,17,14,03,11.40
2008,11,17,14,04,11.40
2008,11,17,14,05,11.30
2008,11,17,14,06,11.30
2008,11,17,14,07,11.30
2008,11,17,14,08,11.30
2008,11,17,14,09,11.20
2008,11,17,14,10,11.20
2008,11,17,14,11,11.20
2008,11,17,14,12,11.10
2008,11,17,14,13,11.10
2008,11,17,14,14,11.00
2008,11,17,14,15,11.00
2008,11,17,14,16,10.90
2008,11,17,14,17,10.80
2008,11,17,14,18,10.80
2008,11,17,14,19,10.80
2008,11,17,14,20,10.80
2008,11,17,14,21,10.80
2008,11,17,14,22,10.80
2008,11,17,14,23,10.80
2008,11,17,14,24,10.80
2008,11,17,14,25,10.80
2008,11,17,14,26,10.80
2008,11,17,14,27,10.70
2008,11,17,14,28,10.70
2008,11,17,14,29,10.60
2008,11,17,14,30,10.60
2008,11,17,14,31,10.60
2008,11,17,14,32,10.50
2008,11,17,14,33,10.50
2008,11,17,14,34,10.50
2008,11,17,14,35,10.50
2008,11,17,14,36,10.50
2008,11,17,14,37,10.40
2008,11,17,14,38,10.40
2008,11,17,14,39,10.40
2008,11,17,14,40,10.40
2008,11,17,14,41,10.40
2008,11,17,14,42,10.50
2008,11,17,14,43,10.50
2008,11,17,14,44,10.40
2008,11,17,14,45,10.40
2008,11,17,14,46,10.40
2008,11,17,14,47,10.40
2008,11,17,14,48,10.40
2008,11,17,14,49,10.40
2008,11,17,14,50,10.40
2008,11,17,14,51,10.40
2008,11,17,14,52,10.30
2008,11,17,14,53,10.30
2008,11,17,14,54,10.30
2008,11,17,14,55,10.30
2008,11,17,14,56,10.30
2008,11,17,14,57,10.30
2008,11,17,14,58,10.20
2008,11,17,14,59,10.20
2008,11,17,15,00,10.10
2008,11,17,15,01,10.10
2008,11,17,15,02,10.10
2008,11,17,15,03,10.10
2008,11,17,15,04,10.10
2008,11,17,15,05,10.10
2008,11,17,15,06,10.10
2008,11,17,15,07,10.10
2008,11,17,15,08,10.10
2008,11,17,15,09,10.10
2008,11,17,15,10,10.10
2008,11,17,15,11,10.10
2008,11,17,15,12,10.10
2008,11,17,15,13,10.10
2008,11,17,15,14,10.10
2008,11,17,15,15,10.10
2008,11,17,15,16,10.10
2008,11,17,15,17,10.00
2008,11,17,15,18,10.00
2008,11,17,15,19,10.00
2008,11,17,15,20,10.00
2008,11,17,15,21,10.00
2008,11,17,15,22,10.00
2008,11,17,15,23,9.90
2008,11,17,15,24,9.90
2008,11,17,15,25,9.90
2008,11,17,15,26,9.80
2008,11,17,15,27,9.80
2008,11,17,15,28,9.80
2008,11,17,15,29,9.80
2008,11,17,15,30,9.80
2008,11,17,15,31,9.80
2008,11,17,15,32,9.80
2008,11,17,15,33,9.80
2008,11,17,15,34,9.80
2008,11,17,15,35,9.80
2008,11,17,15,36,9.70
2008,11,17,15,37,9.70
2008,11,17,15,38,9.70
2008,11,17,15,39,9.70
2008,11,17,15,40,9.70
2008,11,17,15,41,9.70
2008,11,17,15,42,9.70
2008,11,17,15,43,9.60
2008,11,17,15,44,9.60
2008,11,17,15,45,9.60
2008,11,17,15,46,9.60
2008,11,17,15,47,9.60
2008,11,17,15,48,9.50
2008,11,17,15,49,9.50
2008,11,17,15,50,9.50
2008,11,17,15,51,9.40
2008,11,17,15,52,9.40
2008,11,17,15,53,9.40
2008,11,17,15,54,9.40
2008,11,17,15,55,9.40
2008,11,17,15,56,9.40
2008,11,17,15,57,9.30
2008,11,17,15,58,9.30
2008,11,17,15,59,9.30
2008,11,17,16,00,9.30
2008,11,17,16,01,9.20
2008,11,17,16,02,9.20
2008,11,17,16,03,9.20
2008,11,17,16,04,9.10
2008,11,17,16,05,9.10
2008,11,17,16,06,9.10
2008,11,17,16,07,9.10
2008,11,17,16,08,9.00
2008,11,17,16,09,9.00
2008,11,17,16,10,8.90
2008,11,17,16,11,8.90
2008,11,17,16,12,8.90
2008,11,17,16,13,8.90
2008,11,17,16,14,8.80
2008,11,17,16,15,8.80
2008,11,17,16,16,8.80
2008,11,17,16,17,8.80
2008,11,17,16,18,8.80
2008,11,17,16,19,8.70
2008,11,17,16,20,8.70
2008,11,17,16,21,8.70
2008,11,17,16,22,8.60
2008,11,17,16,23,8.60
2008,11,17,16,24,8.60
2008,11,17,16,25,8.50
2008,11,17,16,26,8.50
2008,11,17,16,27,8.50
2008,11,17,16,28,8.40
2008,11,17,16,29,8.40
2008,11,17,16,30,8.40
2008,11,17,16,31,8.40
2008,11,17,16,32,8.40
2008,11,17,16,33,8.30
2008,11,17,16,34,8.30
2008,11,17,16,35,8.30
2008,11,17,16,36,8.30
2008,11,17,16,37,8.30
2008,11,17,16,38,8.20
2008,11,17,16,39,8.20
2008,11,17,16,40,8.20
2008,11,17,16,41,8.20
2008,11,17,16,42,8.20
2008,11,17,16,43,8.20
2008,11,17,16,44,8.10
2008,11,17,16,45,8.10
2008,11,17,16,46,8.10
2008,11,17,16,47,8.00
2008,11,17,16,48,8.00
2008,11,17,16,49,8.00
2008,11,17,16,50,7.90
2008,11,17,16,51,7.90
2008,11,17,16,52,7.90
2008,11,17,16,53,7.90
2008,11,17,16,54,7.90
2008,11,17,16,55,7.90
2008,11,17,16,56,7.80
2008,11,17,16,57,7.80
2008,11,17,16,58,7.80
2008,11,17,16,59,7.80
2008,11,17,17,00,7.80
2008,11,17,17,01,7.70
2008,11,17,17,02,7.70
2008,11,17,17,03,7.70
2008,11,17,17,04,7.70
2008,11,17,17,05,7.70
2008,11,17,17,06,7.60
2008,11,17,17,07,7.60
2008,11,17,17,08,7.60
2008,11,17,17,09,7.60
2008,11,17,17,10,7.50
2008,11,17,17,11,7.50
2008,11,17,17,12,7.50
2008,11,17,17,13,7.40
2008,11,17,17,14,7.40
2008,11,17,17,15,7.40
2008,11,17,17,16,7.40
2008,11,17,17,17,7.40
2008,11,17,17,18,7.40
2008,11,17,17,19,7.40
2008,11,17,17,20,7.30
2008,11,17,17,21,7.30
2008,11,17,17,22,7.30
2008,11,17,17,23,7.30
2008,11,17,17,24,7.30
2008,11,17,17,25,7.30
2008,11,17,17,26,7.30
2008,11,17,17,27,7.30
2008,11,17,17,28,7.30
2008,11,17,17,29,7.30
2008,11,17,17,30,7.30
2008,11,17,17,31,7.30
2008,11,17,17,32,7.30
2008,11,17,17,33,7.40
2008,11,17,17,34,7.40
2008,11,17,17,35,7.50
2008,11,17,17,36,7.60
2008,11,17,17,37,7.60
2008,11,17,17,38,7.60
2008,11,17,17,39,7.70
2008,11,17,17,40,7.70
2008,11,17,17,41,7.70
2008,11,17,17,42,7.70
2008,11,17,17,43,7.70
2008,11,17,17,44,7.70
2008,11,17,17,45,7.70
2008,11,17,17,46,7.70
2008,11,17,17,47,7.60
2008,11,17,17,48,7.60
2008,11,17,17,49,7.60
2008,11,17,17,50,7.60
2008,11,17,17,51,7.60
2008,11,17,17,52,7.60
2008,11,17,17,53,7.60
2008,11,17,17,54,7.60
2008,11,17,17,55,7.60
2008,11,17,17,56,7.60
2008,11,17,17,57,7.60
2008,11,17,17,58,7.60
2008,11,17,17,59,7.50
2008,11,17,18,00,7.50
2008,11,17,18,01,7.50
2008,11,17,18,02,7.50
2008,11,17,18,03,7.60
2008,11,17,18,04,7.60
2008,11,17,18,05,7.60
2008,11,17,18,06,7.60
2008,11,17,18,07,7.60
2008,11,17,18,08,7.60
2008,11,17,18,09,7.60
2008,11,17,18,10,7.60
2008,11,17,18,11,7.60
2008,11,17,18,12,7.60
2008,11,17,18,13,7.70
2008,11,17,18,14,7.70
2008,11,17,18,15,7.70
2008,11,17,18,16,7.70
2008,11,17,18,17,7.70
2008,11,17,18,18,7.80
2008,11,17,18,19,8.00
2008,11,17,18,20,8.10
2008,11,17,18,21,8.10
2008,11,17,18,22,8.20
2008,11,17,18,23,8.30
2008,11,17,18,24,8.30
2008,11,17,18,25,8.30
2008,11,17,18,26,8.30
2008,11,17,18,27,8.30
2008,11,17,18,28,8.40
2008,11,17,18,29,8.40
2008,11,17,18,30,8.40
2008,11,17,18,31,8.50
2008,11,17,18,32,8.50
2008,11,17,18,33,8.50
2008,11,17,18,34,8.50
2008,11,17,18,35,8.50
2008,11,17,18,36,8.50
2008,11,17,18,37,8.60
2008,11,17,18,38,8.70
2008,11,17,18,39,8.80
2008,11,17,18,40,8.90
2008,11,17,18,41,8.90
2008,11,17,18,42,8.90
2008,11,17,18,43,8.90
2008,11,17,18,44,8.80
2008,11,17,18,45,8.80
2008,11,17,18,46,8.80
2008,11,17,18,47,8.80
2008,11,17,18,48,8.70
2008,11,17,18,49,8.70
2008,11,17,18,50,8.70
2008,11,17,18,51,8.70
2008,11,17,18,52,8.70
2008,11,17,18,53,8.60
2008,11,17,18,54,8.60
2008,11,17,18,55,8.60
2008,11,17,18,56,8.60
2008,11,17,18,57,8.50
2008,11,17,18,58,8.50
2008,11,17,18,59,8.50
2008,11,17,19,00,8.40
2008,11,17,19,01,8.40
2008,11,17,19,02,8.40
2008,11,17,19,03,8.40
2008,11,17,19,04,8.40
2008,11,17,19,05,8.30
2008,11,17,19,06,8.30
2008,11,17,19,07,8.30
2008,11,17,19,08,8.30
2008,11,17,19,09,8.30
2008,11,17,19,10,8.20
2008,11,17,19,11,8.20
2008,11,17,19,12,8.20
2008,11,17,19,13,8.20
2008,11,17,19,14,8.20
2008,11,17,19,15,8.30
2008,11,17,19,16,8.30
2008,11,17,19,17,8.30
2008,11,17,19,18,8.30
2008,11,17,19,19,8.30
2008,11,17,19,20,8.30
2008,11,17,19,21,8.40
2008,11,17,19,22,8.50
2008,11,17,19,23,8.50
2008,11,17,19,24,8.50
2008,11,17,19,25,8.60
2008,11,17,19,26,8.60
2008,11,17,19,27,8.70
2008,11,17,19,28,8.80
2008,11,17,19,29,8.90
2008,11,17,19,30,9.00
2008,11,17,19,31,9.10
2008,11,17,19,32,9.20
2008,11,17,19,33,9.20
2008,11,17,19,34,9.30
2008,11,17,19,35,9.30
2008,11,17,19,36,9.30
2008,11,17,19,37,9.40
2008,11,17,19,38,9.50
2008,11,17,19,39,9.60
2008,11,17,19,40,9.60
2008,11,17,19,41,9.60
2008,11,17,19,42,9.60
2008,11,17,19,43,9.60
2008,11,17,19,44,9.60
2008,11,17,19,45,9.50
2008,11,17,19,46,9.40
2008,11,17,19,47,9.40
2008,11,17,19,48,9.20
2008,11,17,19,49,9.10
2008,11,17,19,50,9.10
2008,11,17,19,51,9.00
2008,11,17,19,52,9.10
2008,11,17,19,53,9.10
2008,11,17,19,54,9.10
2008,11,17,19,55,9.00
2008,11,17,19,56,9.00
2008,11,17,19,57,9.00
2008,11,17,19,58,8.90
2008,11,17,19,59,9.00
2008,11,17,20,00,9.00
2008,11,17,20,01,9.10
2008,11,17,20,02,9.20
2008,11,17,20,03,9.20
2008,11,17,20,04,9.20
2008,11,17,20,05,9.30
2008,11,17,20,06,9.40
2008,11,17,20,07,9.50
2008,11,17,20,08,9.60
2008,11,17,20,09,9.60
2008,11,17,20,10,9.60
2008,11,17,20,11,9.70
2008,11,17,20,12,9.80
2008,11,17,20,13,10.00
2008,11,17,20,14,10.20
2008,11,17,20,15,10.50
2008,11,17,20,16,10.70
2008,11,17,20,17,10.80
2008,11,17,20,18,10.90
2008,11,17,20,19,11.10
2008,11,17,20,20,11.20
2008,11,17,20,21,11.20
2008,11,17,20,22,11.20
2008,11,17,20,23,11.20
2008,11,17,20,24,11.10
2008,11,17,20,25,11.00
2008,11,17,20,26,10.90
2008,11,17,20,27,11.00
2008,11,17,20,28,11.10
2008,11,17,20,29,11.20
2008,11,17,20,30,11.20
2008,11,17,20,31,11.10
2008,11,17,20,32,11.10
2008,11,17,20,33,11.10
2008,11,17,20,34,11.10
2008,11,17,20,35,11.20
2008,11,17,20,36,11.20
2008,11,17,20,37,11.00
2008,11,17,20,38,10.90
2008,11,17,20,39,10.80
2008,11,17,20,40,10.80
2008,11,17,20,41,10.70
2008,11,17,20,42,10.60
2008,11,17,20,43,10.40
2008,11,17,20,44,10.40
2008,11,17,20,45,10.30
2008,11,17,20,46,10.30
2008,11,17,20,47,10.30
2008,11,17,20,48,10.40
2008,11,17,20,49,10.50
2008,11,17,20,50,10.60
2008,11,17,20,51,10.60
2008,11,17,20,52,10.60
2008,11,17,20,53,10.60
2008,11,17,20,54,10.60
2008,11,17,20,55,10.50
2008,11,17,20,56,10.60
2008,11,17,20,57,10.60
2008,11,17,20,58,10.80
2008,11,17,20,59,10.80
2008,11,17,21,00,10.90
2008,11,17,21,01,10.90
2008,11,17,21,02,10.90
2008,11,17,21,03,11.00
2008,11,17,21,04,11.10
2008,11,17,21,05,11.10
2008,11,17,21,06,11.20
2008,11,17,21,07,11.20
2008,11,17,21,08,11.30
2008,11,17,21,09,11.30
2008,11,17,21,10,11.30
2008,11,17,21,11,11.30
2008,11,17,21,12,11.30
2008,11,17,21,13,11.40
2008,11,17,21,14,11.50
2008,11,17,21,15,11.60
2008,11,17,21,16,11.90
2008,11,17,21,17,12.00
2008,11,17,21,18,12.20
2008,11,17,21,19,12.30
2008,11,17,21,20,12.40
2008,11,17,21,21,12.40
2008,11,17,21,22,12.50
2008,11,17,21,23,12.60
2008,11,17,21,24,12.60
2008,11,17,21,25,12.60
2008,11,17,21,26,12.50
2008,11,17,21,27,12.40
2008,11,17,21,28,12.30
2008,11,17,21,29,12.20
2008,11,17,21,30,12.10
2008,11,17,21,31,12.00
2008,11,17,21,32,11.90
2008,11,17,21,33,11.80
2008,11,17,21,34,11.70
2008,11,17,21,35,11.70
2008,11,17,21,36,11.60
2008,11,17,21,37,11.50
2008,11,17,21,38,11.50
2008,11,17,21,39,11.40
2008,11,17,21,40,11.30
2008,11,17,21,41,11.30
2008,11,17,21,42,11.30
2008,11,17,21,43,11.20
2008,11,17,21,44,11.20
2008,11,17,21,45,11.10
2008,11,17,21,46,11.10
2008,11,17,21,47,11.10
2008,11,17,21,48,11.00
2008,11,17,21,49,11.00
2008,11,17,21,50,10.90
2008,11,17,21,51,10.90
2008,11,17,21,52,10.90
2008,11,17,21,53,10.90
2008,11,17,21,54,11.00
2008,11,17,21,55,11.00
2008,11,17,21,56,11.00
2008,11,17,21,57,11.00
2008,11,17,21,58,11.10
2008,11,17,21,59,11.10
2008,11,17,22,00,11.10
2008,11,17,22,01,11.10
2008,11,17,22,02,11.10
2008,11,17,22,03,11.00
2008,11,17,22,04,11.00
2008,11,17,22,05,10.90
2008,11,17,22,06,10.90
2008,11,17,22,07,10.80
2008,11,17,22,08,10.80
2008,11,17,22,09,10.70
2008,11,17,22,10,10.70
2008,11,17,22,11,10.70
2008,11,17,22,12,10.70
2008,11,17,22,13,10.70
2008,11,17,22,14,10.70
2008,11,17,22,15,10.70
2008,11,17,22,16,10.70
2008,11,17,22,17,10.60
2008,11,17,22,18,10.60
2008,11,17,22,19,10.60
2008,11,17,22,20,10.60
2008,11,17,22,21,10.60
2008,11,17,22,22,10.50
2008,11,17,22,23,10.50
2008,11,17,22,24,10.40
2008,11,17,22,25,10.40
2008,11,17,22,26,10.40
2008,11,17,22,27,10.40
2008,11,17,22,28,10.40
2008,11,17,22,29,10.40
2008,11,17,22,30,10.40
2008,11,17,22,31,10.40
2008,11,17,22,32,10.40
2008,11,17,22,33,10.40
2008,11,17,22,34,10.50
2008,11,17,22,35,10.60
2008,11,17,22,36,10.60
2008,11,17,22,37,10.60
2008,11,17,22,38,10.60
2008,11,17,22,39,10.60
2008,11,17,22,40,10.60
2008,11,17,22,41,10.60
2008,11,17,22,42,10.60
2008,11,17,22,43,10.60
2008,11,17,22,44,10.60
2008,11,17,22,45,10.60
2008,11,17,22,46,10.60
2008,11,17,22,47,10.60
2008,11,17,22,48,10.60
2008,11,17,22,49,10.60
2008,11,17,22,50,10.60
2008,11,17,22,51,10.60
2008,11,17,22,52,10.60
2008,11,17,22,53,10.60
2008,11,17,22,54,10.60
2008,11,17,22,55,10.60
2008,11,17,22,56,10.70
2008,11,17,22,57,10.70
2008,11,17,22,58,10.70
2008,11,17,22,59,10.70
2008,11,17,23,00,10.70
2008,11,17,23,01,10.80
2008,11,17,23,02,10.80
2008,11,17,23,03,10.80
2008,11,17,23,04,10.80
2008,11,17,23,05,10.80
2008,11,17,23,06,10.80
2008,11,17,23,07,10.80
2008,11,17,23,08,10.80
2008,11,17,23,09,10.70
2008,11,17,23,10,10.70
2008,11,17,23,11,10.70
2008,11,17,23,12,10.70
2008,11,17,23,13,10.70
2008,11,17,23,14,10.70
2008,11,17,23,15,10.70
2008,11,17,23,16,10.70
2008,11,17,23,17,10.70
2008,11,17,23,18,10.70
2008,11,17,23,19,10.60
2008,11,17,23,20,10.60
2008,11,17,23,21,10.60
2008,11,17,23,22,10.60
2008,11,17,23,23,10.60
2008,11,17,23,24,10.50
2008,11,17,23,25,10.50
2008,11,17,23,26,10.50
2008,11,17,23,27,10.50
2008,11,17,23,28,10.40
2008,11,17,23,29,10.40
2008,11,17,23,30,10.40
2008,11,17,23,31,10.40
2008,11,17,23,32,10.40
2008,11,17,23,33,10.40
2008,11,17,23,34,10.40
2008,11,17,23,35,10.40
2008,11,17,23,36,10.40
2008,11,17,23,37,10.30
2008,11,17,23,38,10.30
2008,11,17,23,39,10.30
2008,11,17,23,40,10.30
2008,11,17,23,41,10.30
2008,11,17,23,42,10.30
2008,11,17,23,43,10.30
2008,11,17,23,44,10.30
2008,11,17,23,45,10.30
2008,11,17,23,46,10.30
2008,11,17,23,47,10.30
2008,11,17,23,48,10.20
2008,11,17,23,49,10.20
2008,11,17,23,50,10.20
2008,11,17,23,51,10.20
2008,11,17,23,52,10.20
2008,11,17,23,53,10.20
2008,11,17,23,54,10.20
2008,11,17,23,55,10.20
2008,11,17,23,56,10.20
2008,11,17,23,57,10.20
2008,11,17,23,58,10.20
2008,11,17,23,59,10.20
